Skip Page Navigation
NASA JPL Caltech
NASA Logo - Jet Propulsion Laboratory + View the NASA Portal
+ Center for Near-Earth Object Studies
JPL Home Earth Solar System Stars & Galaxies Technology
JPL Solar System Dynamics
BODIES ORBITS EPHEMERIDES TOOLS PHYSICAL DATA DISCOVERY FAQ SITE MAP
IMPORTANT: The SSD Announcement email list is now available. Major changes are coming in the near future, including possible hostname and/or URL changes. To be notified of such changes, subscribe to this email list.

Please visit this page for more details.


JPL Small-Body Database Browser
Search: [ help ]  
97649 (2000 FK1)
Classification: Inner Main-belt Asteroid          SPK-ID: 2097649
Ephemeris | Orbit Diagram | Orbital Elements | Mission Design | Physical Parameters | Discovery Circumstances | Close-Approach Data ]

[ show orbit diagram ]
Orbital Elements at Epoch 2458600.5 (2019-Apr-27.0) TDB
Reference: JPL 18 (heliocentric ecliptic J2000)
 Element Value Uncertainty (1-sigma)   Units 
e .04947011903289307 4.7931e-08  
a 1.919058887321392 9.4355e-09 au
q 1.824122815734471 9.1671e-08 au
i 24.77629286637888 5.494e-06 deg
node 111.8220546382668 1.4692e-05 deg
peri 168.7086306003456 7.429e-05 deg
M 324.0202282106515 7.572e-05 deg
tp 2458697.548043132157
(2019-Aug-02.04804313)
0.0002045 TDB
period 971.0260457493908
2.66
7.1614e-06
1.961e-08
d
yr
n .3707418576215115 2.7343e-09 deg/d
Q 2.013994958908313 9.9023e-09 au
  Orbit Determination Parameters
   # obs. used (total)      508  
   data-arc span      7040 days (19.27 yr)  
   first obs. used      2000-01-31  
   last obs. used      2019-05-11  
   planetary ephem.      DE431  
   SB-pert. ephem.      SB431-N16  
   condition code      0  
   norm. resid. RMS      .61613  
   source      ORB  
   producer      Otto Matic  
   solution date      2019-May-30 06:29:45  

Additional Information
 Earth MOID = .808546 au 
 Jupiter MOID = 3.16333 au 
 T_jup = 3.813 
[ show covariance matrix ]

Ephemeris | Orbit Diagram | Orbital Elements | Mission Design | Physical Parameters | Discovery Circumstances | Close-Approach Data ]

Physical Parameter Table
Parameter Symbol Value Units Sigma Reference Notes
absolute magnitude H 16.2   n/a MPO320155  
rotation period rot_per 7.363 h n/a LCDB (Rev. 2019-January); Warner et al., 2009 Published Reference List:
[Warner, B.D. (2011) Minor Planet Bull. 38, 190-195.]

97649 (2000 FK1)          Discovered 2000-Mar-26 by LINEAR at Socorro
Reference: 20050224/Numbers.arcLast Updated: 2005-02-28

[ show close-approach data ]
Alternate Designations
 2000 FK1 = 2001 VJ4 
Ephemeris | Orbit Diagram | Orbital Elements | Mission Design | Physical Parameters | Discovery Circumstances | Close-Approach Data ]
ABOUT SSD CREDITS/AWARDS PRIVACY/COPYRIGHT GLOSSARY LINKS
FirstGov 2019-Oct-14 12:11 UT
(server date/time)  
NASA Home Page
Site Manager:   Ryan S. Park
Webmaster  Alan B. Chamberlin